Hourly Data Report for March 29, 2019

MAYO A
YUKON TERRITORY
Current Station Operator: NAVCAN

63°36'59.000" N
135°52'06.000" W
503.80 m
2100701
71965
YMA

Download Data

Hourly Data (March 2019)
Hourly Data Report for March 29, 2019
TIME
LST
Temp Definition
°C
Dew Point Definition
°C
Rel Hum Definition
%
Precip. Amount Definition
mm

Wind Dir Definition
10's deg

Wind Spd Definition
km/h
Visibility Definition
km
Stn Press Definition
kPa
Hmdx Definition


Wind Chill Definition


Weather Definition


00:00 1.5 -0.8 85   36 1 32.2 96.09     LegendNANA
01:00 0.0 -1.9 87   36 1 32.2 96.14   0 Clear
02:00 -1.1 -2.6 89   23 5 32.2 96.20   -3 LegendNANA
03:00 -1.9 -3.1 92   36 3 32.2 96.25   -3 LegendNANA
04:00 -3.0 -4.3 91   30 8 32.2 96.34   -6 Clear
05:00 -3.6 -4.5 93   32 4 32.2 96.38   -5 LegendNANA
06:00 -3.6 -4.3 95   36 2 32.2 96.45   -4 LegendNANA
07:00 -3.8 -5.0 91   35 6 32.2 96.53   -6 Clear
08:00 0.2 -2.1 85   27 8 32.2 96.61     LegendNANA
09:00 1.5 -1.5 81   29 9 32.2 96.64     LegendNANA
10:00 4.0 -1.2 69   20 3 32.2 96.69     Mainly Clear
11:00 6.4 -0.6 61   21 5 32.2 96.72     LegendNANA
12:00 7.8 -2.3 49   20 4 32.2 96.73     LegendNANA
13:00 8.0 -2.3 48   4 9 32.2 96.73     Mostly Cloudy
14:00 8.4 -3.8 42   19 4 32.2 96.76     LegendNANA
15:00 8.7 -3.6 42   26 6 32.2 96.78     LegendNANA
16:00 8.8 -3.9 41   22 9 32.2 96.78     Mainly Clear
17:00 9.1 -5.8 34   36 5 32.2 96.79     LegendNANA
18:00 8.6 -5.5 37   36 11 32.2 96.82     LegendNANA
19:00 7.2 -6.3 38   35 11 32.2 96.85     Cloudy
20:00 5.7 -6.5 41   36 10 32.2 96.90     LegendNANA
21:00 4.7 -6.9 43   36 9 32.2 96.96     LegendNANA
22:00 2.5 -6.9 50   35 9 32.2 97.00     Cloudy
23:00 1.9 -6.8 52   35 10 32.2 97.01     LegendNANA

Notes on Data Quality.

Legend

  • E = Estimated
  • M = Missing
  • NA = Not Available*
  • [empty] = Indicates an unobserved value
Date modified: